This demonstration page uses our WeatherBlox Daily Observations layout. Learn more.

Left ArrowRight Arrow

39.12711, -84.51439

Hourly Observations for August 17, 2018

Temp ( °F °C ) Dew Point ( °F °C ) Humidity (%) Winds ( mph kmh ) Pressure ( in mb ) Visibility ( mi km ) Precip ( " mm )
12:07 am 00:07 Cloudy with Strong Thunderstorms 74 23.3 73 22.8 97 97 S 9 15 29.97 1015 2 3 0.20 5.08
12:12 am 00:12 Cloudy with Thunderstorms 74 23.3 74 23.3 100 100 SSE 7 11 29.97 1015 3 5 0.21 5.33
12:33 am 00:33 Cloudy with Strong Thunderstorms 74 23.3 74 23.3 100 100 VRB 3 6 30.00 1016 2 3 0.29 7.37
12:44 am 00:44 Cloudy with Thunderstorms 74 23.3 74 23.3 100 100 ESE 5 7 30.00 1016 3 4 0.33 8.38
12:51 am 00:51 Cloudy with Thunderstorms 73 23 73 23 100 100 VRB 3 6 30.00 1016 7 11 0.33 8.38
12:53 am 00:53 Cloudy with Thunderstorms 74 23.3 74 23.3 100 100 undefined N/A 30.02 1017 8 13 0.33 8.38
12:58 am 00:58 Cloudy with Strong Thunderstorms 74 23.3 73 22.8 97 97 WSW 17 28 30.00 1016 2 3 0.13 3.30
1:09 am 01:09 Cloudy with Strong Thunderstorms 74 23.3 74 23.3 100 100 SSE 8 13 30.00 1016 1 1 0.38 9.65
1:16 am 01:16 Cloudy with Strong Thunderstorms 74 23.3 74 23.3 100 100 SSW 12 19 30.00 1016 2 3 0.44 11.18
1:24 am 01:24 Cloudy with Thunderstorms 74 23.3 74 23.3 100 100 S 16 26 30.00 1016 3 5 0.45 11.43
1:43 am 01:43 Mostly Cloudy with Thunderstorms 74 23.3 73 22.8 97 97 SSW 10 17 29.97 1015 10 16 0.47 11.94
1:53 am 01:53 Mostly Cloudy 74 23.3 73 22.8 97 97 SSW 7 11 29.99 1016 10 16 0.47 11.94
2:04 am 02:04 Mostly Clear with Nearby Thunderstorms 73 22.8 73 22.8 100 100 SSW 3 6 29.97 1015 10 16 N/A
2:20 am 02:20 Clear 73 22.8 72 22.2 96 96 N N/A 29.97 1015 10 16 N/A
2:53 am 02:53 Mostly Cloudy 72 22.2 72 22.2 100 100 ESE 3 6 29.99 1016 7 11 N/A
3:53 am 03:53 Mostly Cloudy with Light Rain 72 22.2 72 22.2 100 100 N N/A 30.00 1016 4 6 0.01 0.25
4:45 am 04:45 Mostly Cloudy with Mist and Fog 72 22.2 72 22.2 100 100 N N/A 29.97 1015 6 10 N/A
4:53 am 04:53 Mostly Cloudy with Mist and Fog 72 22.2 72 22.2 100 100 N N/A 29.99 1016 6 10 N/A
5:53 am 05:53 Mostly Cloudy 73 22.8 73 22.8 100 100 SSW 6 9 29.99 1016 9 14 N/A
6:04 am 06:04 Cloudy with Heavy Rain 73 22.8 73 22.8 100 100 S 6 9 29.97 1015 3 4 0.05 1.27
6:14 am 06:14 Cloudy with Light Rain 73 22.8 73 22.8 100 100 SSW 5 7 29.97 1015 4 6 0.06 1.52
6:23 am 06:23 Cloudy 73 22.8 73 22.8 100 100 SSW 5 7 29.97 1015 8 13 0.06 1.52
6:37 am 06:37 Cloudy 73 22.8 73 22.8 100 100 SSW 5 7 29.97 1015 8 13 0.06 1.52
6:53 am 06:53 Cloudy with Light Rain 73 22.8 73 22.8 100 100 SSW 5 7 29.99 1016 6 10 0.06 1.52
7:53 am 07:53 Cloudy with Light Rain 74 23.3 74 23.3 100 100 SSW 3 6 30.00 1016 6 10 N/A
8:53 am 08:53 Cloudy with Light Rain 75 23.9 74 23.3 96 96 S 12 19 30.00 1016 8 13 N/A
9:32 am 09:32 Cloudy 75 23.9 74 23.3 96 96 S 10 17 29.97 1015 9 14 N/A
9:53 am 09:53 Cloudy 75 23.9 74 23.3 96 96 S 10 17 29.99 1016 9 14 N/A
10:53 am 10:53 Mostly Cloudy 77 25 75 23.9 94 94 S 10 17 29.98 1015 8 13 N/A
11:22 am 11:22 Partly Cloudy 78 25.6 75 23.9 90 90 S 12 19 29.97 1015 10 16 N/A
11:42 am 11:42 Cloudy 78 25.6 75 23.9 90 90 S 10 17 29.97 1015 10 16 N/A
11:53 am 11:53 Cloudy 78 25.6 75 23.9 90 90 SSW 9 15 29.99 1016 10 16 N/A
12:24 pm 12:24 Mostly Sunny 80 26.7 75 23.9 85 85 S 9 15 29.97 1015 10 16 N/A
12:53 pm 12:53 Mostly Cloudy 81 27.2 74 23.3 79 79 S 9 15 29.97 1015 10 16 N/A
1:53 pm 13:53 Mostly Cloudy 80 26.7 74 23.3 82 82 SW 9 15 29.99 1016 10 16 N/A
2:53 pm 14:53 Mostly Cloudy 79 26.1 74 23.3 85 85 SW 7 11 30.00 1016 10 16 N/A
3:53 pm 15:53 Mostly Cloudy 79 26.1 74 23.3 85 85 SW 8 13 29.98 1015 10 16 N/A
4:53 pm 16:53 Mostly Cloudy 82 27.8 74 23.3 77 77 SSW 9 15 29.95 1014 10 16 N/A
5:53 pm 17:53 Mostly Cloudy 81 27.2 73 22.8 77 77 SW 7 11 29.96 1015 10 16 N/A
6:53 pm 18:53 Mostly Cloudy 80 26.7 73 22.8 79 79 SW 7 11 29.95 1014 10 16 N/A
7:53 pm 19:53 Partly Cloudy 76 24.4 70 21.1 82 82 S 8 13 29.97 1015 10 16 N/A
8:53 pm 20:53 Mostly Clear 74 23.3 70 21.1 88 88 SW 3 6 29.97 1015 10 16 N/A
9:53 pm 21:53 Partly Cloudy 72 22.2 70 21.1 94 94 SSW 5 7 29.98 1015 10 16 N/A
10:53 pm 22:53 Clear 71 21.7 70 21.1 96 96 WSW 3 6 29.98 1015 10 16 N/A
11:53 pm 23:53 Clear 72 22.2 71 21.7 97 97 N N/A 29.98 1015 10 16 N/A

Powered by AerisWeather